| time (UTC) | temp F | wind direction | speed MPH | gust MPH | rain 1hr in | rain 24hr in | rain mn in | humidity % | barometer mb |
| 20260505053047 | 49 | 187 | 10.0 | 13.0 | 0.00 | 0.00 | 0.00 | 54 | 1015.8 |
| 20260505052511 | 49 | 135 | 7.0 | 16.0 | 0.00 | 0.00 | 0.00 | 52 | 1015.8 |
| 20260505052046 | 49 | 206 | 5.0 | 14.0 | 0.00 | 0.00 | 0.00 | 52 | 1015.7 |
| 20260505051547 | 49 | 130 | 2.0 | 10.0 | 0.00 | 0.00 | 0.00 | 51 | 1015.5 |
| 20260505051011 | 49 | 128 | 4.0 | 5.0 | 0.00 | 0.00 | 0.00 | 50 | 1015.6 |
| 20260505050547 | 49 | 147 | 5.0 | 11.0 | 0.00 | 0.00 | 0.00 | 49 | 1015.7 |
| 20260505041547 | 50 | 154 | 5.0 | 14.0 | 0.00 | 0.00 | 0.00 | 46 | 1015.7 |
| 20260505041047 | 50 | 109 | 4.0 | 7.0 | 0.00 | 0.00 | 0.00 | 47 | 1015.8 |
| 20260505035047 | 50 | 130 | 4.0 | 8.0 | 0.00 | 0.00 | 0.00 | 47 | 1015.8 |
| 20260505034511 | 50 | 177 | 7.0 | 20.0 | 0.00 | 0.00 | 0.00 | 46 | 1015.6 |
| 20260505034011 | 50 | 129 | 7.0 | 12.0 | 0.00 | 0.00 | 0.00 | 46 | 1015.5 |
| 20260505033547 | 50 | 140 | 6.0 | 11.0 | 0.00 | 0.00 | 0.00 | 47 | 1015.4 |
| 20260505033012 | 50 | 106 | 12.0 | 13.0 | 0.00 | 0.00 | 0.00 | 45 | 1015.4 |
| 20260505032547 | 51 | 196 | 5.0 | 9.0 | 0.00 | 0.00 | 0.00 | 43 | 1015.3 |
| 20260505032047 | 51 | 133 | 12.0 | 14.0 | 0.00 | 0.00 | 0.00 | 42 | 1015.2 |
| 20260505031547 | 51 | 257 | 7.0 | 13.0 | 0.00 | 0.00 | 0.00 | 42 | 1015.0 |
| 20260505031011 | 51 | 198 | 3.0 | 9.0 | 0.00 | 0.00 | 0.00 | 44 | 1015.2 |
| 20260505030547 | 51 | 122 | 5.0 | 13.0 | 0.00 | 0.00 | 0.00 | 43 | 1015.2 |
| 20260505030047 | 51 | 141 | 5.0 | 16.0 | 0.00 | 0.00 | 0.00 | 44 | 1015.1 |
| 20260505025546 | 51 | 125 | 5.0 | 7.0 | 0.00 | 0.00 | 0.00 | 43 | 1015.2 |
| 20260505025012 | 52 | 130 | 7.0 | 11.0 | 0.00 | 0.00 | 0.00 | 43 | 1015.0 |
| 20260505023046 | 52 | 162 | 5.0 | 14.0 | 0.00 | 0.00 | 0.00 | 41 | 1014.7 |
| 20260505022547 | 52 | 177 | 3.0 | 15.0 | 0.00 | 0.00 | 0.00 | 40 | 1015.0 |
| 20260505022011 | 53 | 132 | 5.0 | 12.0 | 0.00 | 0.00 | 0.00 | 40 | 1014.9 |
| 20260505021546 | 53 | 219 | 2.0 | 11.0 | 0.00 | 0.00 | 0.00 | 40 | 1014.9 |
| 20260505021047 | 53 | 198 | 11.0 | 16.0 | 0.00 | 0.00 | 0.00 | 39 | 1014.9 |
| 20260505015011 | 54 | 174 | 9.0 | 9.0 | 0.00 | 0.00 | 0.00 | 38 | 1014.9 |
| 20260505014546 | 54 | 192 | 8.0 | 18.0 | 0.00 | 0.00 | 0.00 | 39 | 1014.6 |
| 20260505014047 | 54 | 158 | 7.0 | 10.0 | 0.00 | 0.00 | 0.00 | 39 | 1014.5 |
| 20260505013547 | 54 | 104 | 5.0 | 8.0 | 0.00 | 0.00 | 0.00 | 38 | 1014.9 |
| 20260505013011 | 55 | 211 | 12.0 | 13.0 | 0.00 | 0.00 | 0.00 | 38 | 1014.7 |
| 20260505012547 | 55 | 181 | 11.0 | 15.0 | 0.00 | 0.00 | 0.00 | 39 | 1014.9 |
| 20260505012046 | 55 | 127 | 5.0 | 8.0 | 0.00 | 0.00 | 0.00 | 40 | 1014.9 |
| 20260505011547 | 55 | 189 | 11.0 | 13.0 | 0.00 | 0.00 | 0.00 | 39 | 1014.7 |
| 20260505005547 | 56 | 174 | 11.0 | 23.0 | 0.00 | 0.00 | 0.00 | 38 | 1014.6 |
| 20260505005047 | 56 | 146 | 10.0 | 19.0 | 0.00 | 0.00 | 0.00 | 37 | 1014.9 |
| 20260505004547 | 56 | 205 | 21.0 | 23.0 | 0.00 | 0.00 | 0.00 | 38 | 1014.6 |
| 20260505004011 | 56 | 175 | 10.0 | 17.0 | 0.00 | 0.00 | 0.00 | 39 | 1015.0 |
| 20260505003547 | 57 | 169 | 6.0 | 24.0 | 0.00 | 0.00 | 0.00 | 38 | 1015.0 |
| 20260505003047 | 57 | 190 | 9.0 | 13.0 | 0.00 | 0.00 | 0.00 | 38 | 1015.0 |
| 20260505002511 | 58 | 121 | 4.0 | 15.0 | 0.00 | 0.00 | 0.00 | 35 | 1015.1 |
| 20260505002012 | 59 | 187 | 13.0 | 21.0 | 0.00 | 0.00 | 0.00 | 34 | 1015.0 |
| 20260505001547 | 59 | 138 | 12.0 | 15.0 | 0.00 | 0.00 | 0.00 | 34 | 1014.9 |
| 20260504235546 | 57 | 190 | 9.0 | 29.0 | 0.00 | 0.00 | 0.00 | 34 | 1014.7 |
| 20260504235012 | 59 | 212 | 11.0 | 20.0 | 0.00 | 0.00 | 0.00 | 32 | 1014.7 |
| 20260504233012 | 59 | 217 | 13.0 | 22.0 | 0.00 | 0.00 | 0.00 | 30 | 1014.9 |
| 20260504232546 | 60 | 183 | 5.0 | 12.0 | 0.00 | 0.00 | 0.00 | 30 | 1014.7 |
| 20260504232047 | 60 | 181 | 8.0 | 23.0 | 0.00 | 0.00 | 0.00 | 31 | 1015.0 |
| 20260504231546 | 59 | 194 | 15.0 | 25.0 | 0.00 | 0.00 | 0.00 | 32 | 1015.1 |
| 20260504231046 | 59 | 203 | 7.0 | 18.0 | 0.00 | 0.00 | 0.00 | 33 | 1015.1 |
| 20260504230547 | 60 | 176 | 16.0 | 17.0 | 0.00 | 0.00 | 0.00 | 32 | 1015.0 |
| 20260504230012 | 59 | 194 | 11.0 | 20.0 | 0.00 | 0.00 | 0.00 | 32 | 1015.0 |
| 20260504225546 | 59 | 167 | 7.0 | 17.0 | 0.00 | 0.00 | 0.00 | 32 | 1014.9 |
| 20260504225047 | 58 | 178 | 16.0 | 25.0 | 0.00 | 0.00 | 0.00 | 33 | 1015.1 |
| 20260504223011 | 62 | 173 | 6.0 | 15.0 | 0.00 | 0.00 | 0.00 | 30 | 1015.5 |
| 20260504222547 | 60 | 232 | 8.0 | 15.0 | 0.00 | 0.00 | 0.00 | 30 | 1015.2 |
| 20260504222046 | 60 | 186 | 11.0 | 13.0 | 0.00 | 0.00 | 0.00 | 30 | 1015.3 |
| 20260504221517 | 59 | 160 | 14.0 | 32.0 | 0.00 | 0.00 | 0.00 | 31 | 1015.4 |
| 20260504221011 | 60 | 180 | 10.0 | 21.0 | 0.00 | 0.00 | 0.00 | 32 | 1015.5 |
| 20260504220547 | 60 | 147 | 7.0 | 26.0 | 0.00 | 0.00 | 0.00 | 32 | 1015.4 |
| 20260504220016 | 61 | 135 | 7.0 | 25.0 | 0.00 | 0.00 | 0.00 | 32 | 1015.4 |
| 20260504215547 | 61 | 181 | 13.0 | 20.0 | 0.00 | 0.00 | 0.00 | 33 | 1015.4 |
| 20260504215012 | 61 | 150 | 10.0 | 23.0 | 0.00 | 0.00 | 0.00 | 32 | 1015.4 |
| 20260504214515 | 60 | 201 | 15.0 | 20.0 | 0.00 | 0.00 | 0.00 | 34 | 1015.5 |
| 20260504214047 | 61 | 159 | 10.0 | 27.0 | 0.00 | 0.00 | 0.00 | 31 | 1015.6 |
| 20260504213547 | 60 | 143 | 9.0 | 22.0 | 0.00 | 0.00 | 0.00 | 28 | 1015.6 |
| 20260504213014 | 60 | 190 | 13.0 | 20.0 | 0.00 | 0.00 | 0.00 | 32 | 1015.5 |
| 20260504212547 | 61 | 117 | 3.0 | 19.0 | 0.00 | 0.00 | 0.00 | 32 | 1015.6 |
| 20260504212012 | 61 | 209 | 8.0 | 15.0 | 0.00 | 0.00 | 0.00 | 31 | 1015.7 |
| 20260504211514 | 59 | 214 | 14.0 | 34.0 | 0.00 | 0.00 | 0.00 | 32 | 1015.8 |
| 20260504211047 | 60 | 178 | 11.0 | 24.0 | 0.00 | 0.00 | 0.00 | 36 | 1015.9 |
| 20260504210512 | 60 | 165 | 11.0 | 27.0 | 0.00 | 0.00 | 0.00 | 42 | 1015.6 |
| 20260504210011 | 60 | 187 | 15.0 | 22.0 | 0.00 | 0.00 | 0.00 | 40 | 1015.6 |
| 20260504205547 | 59 | 198 | 21.0 | 38.0 | 0.00 | 0.00 | 0.00 | 37 | 1015.7 |
| 20260504205012 | 60 | 172 | 16.0 | 22.0 | 0.00 | 0.00 | 0.00 | 38 | 1015.9 |
| 20260504204510 | 59 | 217 | 18.0 | 22.0 | 0.00 | 0.00 | 0.00 | 41 | 1015.9 |
| 20260504204047 | 60 | 209 | 21.0 | 24.0 | 0.00 | 0.00 | 0.00 | 38 | 1015.9 |
| 20260504203547 | 60 | 195 | 20.0 | 25.0 | 0.00 | 0.00 | 0.00 | 39 | 1015.8 |
| 20260504203009 | 60 | 143 | 16.0 | 24.0 | 0.00 | 0.00 | 0.00 | 43 | 1015.6 |
| 20260504202546 | 61 | 176 | 10.0 | 15.0 | 0.00 | 0.00 | 0.00 | 41 | 1015.5 |
| 20260504202047 | 59 | 216 | 15.0 | 21.0 | 0.00 | 0.00 | 0.00 | 42 | 1015.6 |
| 20260504201507 | 60 | 182 | 14.0 | 27.0 | 0.00 | 0.00 | 0.00 | 43 | 1015.8 |
| 20260504201012 | 61 | 186 | 15.0 | 22.0 | 0.00 | 0.00 | 0.00 | 41 | 1015.7 |
| 20260504200547 | 59 | 186 | 13.0 | 28.0 | 0.00 | 0.00 | 0.00 | 49 | 1015.7 |
| 20260504200006 | 60 | 107 | 15.0 | 19.0 | 0.00 | 0.00 | 0.00 | 43 | 1015.9 |
| 20260504195546 | 60 | 192 | 8.0 | 14.0 | 0.00 | 0.00 | 0.00 | 43 | 1015.9 |
| 20260504195047 | 58 | 125 | 9.0 | 33.0 | 0.00 | 0.00 | 0.00 | 49 | 1015.9 |
| 20260504193004 | 59 | 192 | 14.0 | 21.0 | 0.00 | 0.00 | 0.00 | 52 | 1015.9 |
| 20260504192512 | 59 | 113 | 5.0 | 20.0 | 0.00 | 0.00 | 0.00 | 49 | 1015.9 |
| 20260504192012 | 60 | 122 | 8.0 | 18.0 | 0.00 | 0.00 | 0.00 | 47 | 1015.7 |
| 20260504191502 | 60 | 139 | 23.0 | 30.0 | 0.00 | 0.00 | 0.00 | 44 | 1015.6 |
| 20260504191012 | 59 | 137 | 14.0 | 24.0 | 0.00 | 0.00 | 0.00 | 46 | 1015.9 |
| 20260504190547 | 60 | 152 | 25.0 | 26.0 | 0.00 | 0.00 | 0.00 | 44 | 1015.9 |
| 20260504190002 | 59 | 131 | 7.0 | 24.0 | 0.00 | 0.00 | 0.00 | 46 | 1016.2 |
| 20260504185546 | 58 | 168 | 15.0 | 28.0 | 0.00 | 0.00 | 0.00 | 47 | 1016.3 |
| 20260504185011 | 60 | 157 | 10.0 | 26.0 | 0.00 | 0.00 | 0.00 | 43 | 1016.1 |
| 20260504184549 | 60 | 140 | 15.0 | 24.0 | 0.00 | 0.00 | 0.00 | 45 | 1016.2 |
| 20260504184047 | 58 | 173 | 11.0 | 29.0 | 0.00 | 0.00 | 0.00 | 48 | 1016.4 |
| 20260504183547 | 58 | 218 | 22.0 | 27.0 | 0.00 | 0.00 | 0.00 | 43 | 1016.2 |
| 20260504183011 | 59 | 132 | 11.0 | 18.0 | 0.00 | 0.00 | 0.00 | 46 | 1016.1 |
| 20260504182547 | 58 | 107 | 7.0 | 21.0 | 0.00 | 0.00 | 0.00 | 48 | 1016.1 |
| 20260504182047 | 60 | 161 | 9.0 | 16.0 | 0.00 | 0.00 | 0.00 | 45 | 1015.9 |
| 20260504181547 | 58 | 190 | 11.0 | 20.0 | 0.00 | 0.00 | 0.00 | 48 | 1015.9 |
| 20260504181047 | 59 | 139 | 8.0 | 16.0 | 0.00 | 0.00 | 0.00 | 48 | 1016.3 |
| 20260504180547 | 58 | 191 | 11.0 | 18.0 | 0.00 | 0.00 | 0.00 | 48 | 1016.3 |
| 20260504180011 | 58 | 182 | 9.0 | 19.0 | 0.00 | 0.00 | 0.00 | 47 | 1016.3 |
| 20260504175546 | 58 | 138 | 8.0 | 21.0 | 0.00 | 0.00 | 0.00 | 48 | 1016.0 |
| 20260504174011 | 58 | 207 | 17.0 | 21.0 | 0.00 | 0.00 | 0.00 | 45 | 1016.0 |
| 20260504173547 | 58 | 154 | 7.0 | 19.0 | 0.00 | 0.00 | 0.00 | 47 | 1015.9 |
| 20260504173011 | 58 | 158 | 9.0 | 18.0 | 0.00 | 0.00 | 0.00 | 48 | 1016.1 |
| 20260504172546 | 58 | 227 | 12.0 | 20.0 | 0.00 | 0.00 | 0.00 | 48 | 1016.1 |
| 20260504172046 | 59 | 118 | 13.0 | 15.0 | 0.00 | 0.00 | 0.00 | 47 | 1016.2 |
| 20260504171546 | 58 | 115 | 14.0 | 19.0 | 0.00 | 0.00 | 0.00 | 48 | 1016.3 |
| 20260504171047 | 58 | 119 | 10.0 | 14.0 | 0.00 | 0.00 | 0.00 | 47 | 1016.3 |
| 20260504170547 | 58 | 185 | 7.0 | 13.0 | 0.00 | 0.00 | 0.00 | 47 | 1015.9 |
| 20260504151012 | 55 | 148 | 6.0 | 8.0 | 0.00 | 0.00 | 0.00 | 47 | 1015.9 |
| 20260504150555 | 54 | 177 | 7.0 | 11.0 | 0.00 | 0.00 | 0.00 | 49 | 1016.0 |
| 20260504141011 | 51 | 146 | 8.0 | 16.0 | 0.00 | 0.00 | 0.00 | 57 | 1015.8 |
| 20260504140555 | 51 | 137 | 9.0 | 15.0 | 0.00 | 0.00 | 0.00 | 57 | 1015.6 |
| 20260504130555 | 51 | 136 | 7.0 | 12.0 | 0.00 | 0.00 | 0.00 | 57 | 1015.5 |
| 20260504110513 | 50 | 101 | 3.0 | 6.0 | 0.00 | 0.00 | 0.00 | 59 | 1015.7 |
| 20260504100555 | 52 | 127 | 8.0 | 10.0 | 0.00 | 0.00 | 0.00 | 56 | 1015.8 |